Home   Weather   Cleveland   Past weeks

Flag for USA Past Weather in Cleveland, Ohio, USA — Yesterday and Last 2 Weeks

56 °F

Scattered clouds.

Feels Like: 54 °F
Forecast: 46 / 57 °F
Wind: 9 mph from Southwest

Location: Cleveland-Hopkins International Airport

Current Time: Oct 28, 2016 at 4:05:36 PM

Latest Report: Oct 28, 2016 at 2:51 PM

Visibility: 10 mi

Pressure: 30.27 "Hg

Humidity: 51%

Dew Point: 38 °F

Location of ClevelandLocation

Past Weather in Cleveland — Graph


Cleveland Temperature Yesterday

Maximum temperature yesterday: 57 °F (at 9:51 AM)
Minimum temperature yesterday: 46 °F (at 12:51 AM)
Average temperature yesterday: 50 °F

High & Low Weather Summary for the Past Weeks

High82 °F (Oct 17, 2:51 PM)87% (Oct 16, 10:51 PM)30.48 "Hg (Oct 16, 10:51 PM)
Low37 °F (Oct 14, 5:51 AM)41% (Oct 14, 3:51 PM)29.71 "Hg (Oct 18, 3:51 PM)
Average57 °F67%30.10 "Hg
* Reported Oct 13 2:51 PM — Oct 28 2:51 PM, Cleveland, Weather by CustomWeather, © 2016

Note: Actual official high and low records may vary slightly from our data, if they occured in-between our weather recording intervals... More about our weather records


Cleveland Weather History for the Previous 24 Hours

Scroll right to see more
Time TempWeatherWind HumidityBarometerVisibility
2:51 PM
Fri, Oct 28
56 °FScattered clouds.9 mph51%30.27 "Hg10 mi
1:51 PM53 °FScattered clouds.3 mph56%30.30 "Hg10 mi
12:51 PM51 °FPartly sunny.8 mph61%30.34 "Hg10 mi
11:51 AM50 °FPartly sunny.8 mph63%30.36 "Hg10 mi
10:51 AM50 °FPartly sunny.7 mph68%30.37 "Hg10 mi
9:51 AM47 °FOvercast.7 mph80%30.37 "Hg10 mi
8:51 AM46 °FOvercast.6 mph83%30.34 "Hg10 mi
7:51 AM45 °FOvercast.5 mph86%30.34 "Hg10 mi
6:51 AM45 °FOvercast.5 mph86%30.33 "Hg10 mi
5:51 AM46 °FOvercast.6 mph79%30.30 "Hg10 mi
4:51 AM45 °FOvercast.5 mph86%30.29 "Hg10 mi
3:51 AM46 °FOvercast.5 mph83%30.28 "Hg10 mi
2:51 AM46 °FMostly cloudy.6 mph83%30.27 "Hg10 mi
1:51 AM47 °FOvercast.6 mph74%30.27 "Hg10 mi
1:01 AM47 °FMostly cloudy.5 mph80%30.26 "Hg10 mi
11:51 PM
Thu, Oct 27
47 °FMostly cloudy.10 mph80%30.26 "Hg10 mi
10:51 PM49 °FMostly cloudy.6 mph69%30.25 "Hg10 mi
9:51 PM49 °FMostly cloudy.8 mph66%30.23 "Hg10 mi
8:51 PM49 °FMostly cloudy.14 mph69%30.22 "Hg10 mi
7:51 PM48 °FOvercast.8 mph77%30.20 "Hg10 mi
6:51 PM49 °FOvercast.6 mph74%30.18 "Hg10 mi
5:51 PM49 °FOvercast.9 mph71%30.16 "Hg10 mi
4:51 PM49 °FOvercast.12 mph71%30.14 "Hg10 mi
Weather by CustomWeather, © 2016

See weather overviewHow to use our weather pages